This demonstration page uses our WeatherBlox Daily Observations layout. Learn more.

Left ArrowRight Arrow

41.86663, -103.66717

Hourly Observations for March 4, 2020

Temp ( °F °C ) Dew Point ( °F °C ) Humidity (%) Winds ( mph kmh ) Pressure ( in mb ) Visibility ( mi km ) Precip ( " mm )
1:53 am 01:53 Clear 23 -5 20 -6.7 88 88 ENE 5 7 30.03 1017 10 16 N/A
2:53 am 02:53 Clear 22 -5.6 20 -6.7 92 92 N N/A 30.01 1016 10 16 N/A
3:53 am 03:53 Clear 22 -5.6 20 -6.7 92 92 N 7 11 30.01 1016 10 16 N/A
4:53 am 04:53 Clear 19 -7.2 17 -8.3 92 92 E 3 6 30.05 1018 10 16 N/A
5:53 am 05:53 Clear 20 -6.7 18 -7.8 92 92 E 5 7 30.04 1017 10 16 N/A
6:53 am 06:53 Sunny 25 -3.9 20 -6.7 81 81 SSE 6 9 30.02 1017 10 16 N/A
7:53 am 07:53 Sunny 34 1.1 26 -3.3 73 73 SE 5 7 30.00 1016 10 16 N/A
8:53 am 08:53 Sunny 45 7.2 25 -3.9 46 46 SSE 3 6 29.96 1015 10 16 N/A
9:53 am 09:53 Sunny 55 12.8 21 -6.1 26 26 W 18 30 29.91 1013 10 16 N/A
10:53 am 10:53 Sunny 61 16.1 11 -11.7 14 14 W 32 52 29.84 1011 10 16 N/A
11:53 am 11:53 Mostly Cloudy 63 17.2 7 -13.9 11 11 W 35 56 29.83 1010 9 14 N/A
12:19 pm 12:19 Partly Cloudy 64 17.8 10 -12.2 12 12 W 30 48 29.66 1005 10 16 N/A
12:53 pm 12:53 Sunny 64 17.8 14 -10 14 14 W 26 43 29.81 1010 10 16 N/A
1:53 pm 13:53 Sunny 63 17.2 17 -8.3 17 17 W 35 56 29.82 1010 10 16 N/A
2:53 pm 14:53 Sunny 62 16.7 19 -7.2 19 19 W 28 44 29.84 1011 10 16 N/A
3:53 pm 15:53 Sunny 60 15.6 21 -6.1 22 22 WNW 25 41 29.86 1011 10 16 N/A
4:53 pm 16:53 Sunny 57 13.9 23 -5 27 27 WNW 29 46 29.91 1013 10 16 N/A
5:53 pm 17:53 Clear 52 11.1 25 -3.9 35 35 W 20 31 29.95 1014 10 16 N/A
6:53 pm 18:53 Clear 50 10 26 -3.3 39 39 WNW 17 28 29.96 1015 10 16 N/A
7:53 pm 19:53 Clear 47 8.3 25 -3.9 42 42 W 12 19 29.96 1015 10 16 N/A
8:53 pm 20:53 Clear 46 7.8 26 -3.3 46 46 W 14 22 29.95 1014 10 16 N/A
9:35 pm 21:35 Clear 42 5.6 29 -1.7 60 60 N 31 50 30.07 1018 10 16 N/A
9:53 pm 21:53 Clear 39 3.9 29 -1.7 67 67 N 23 37 30.06 1018 10 16 N/A
10:53 pm 22:53 Mostly Cloudy 37 2.8 26 -3.3 65 65 N 22 35 30.12 1020 10 16 N/A
11:53 pm 23:53 Cloudy 35 1.7 24 -4.4 64 64 NNW 15 24 30.19 1022 10 16 N/A

Powered by AerisWeather